Overview Statistics Trail Chart Weather Telemetry Raw packets
 

This is the latest recevied weather packets stored in our database for station/object KB4RFE. If no packets are shown the sender has not sent any weather packets the latest 10 day(s).

<< 100 101 102 103 104 105 106 >>
Time Temp. Humidity Pressure Rain* Wind** Luminosity Snow
1787876650 25.56° C 93% 1018.1 hPa 0 mm - 0 W/m² -
1787876350 25.56° C 93% 1018 hPa 0 mm - 0 W/m² -
1787876049 25.56° C 93% 1017.9 hPa 0 mm - 0 W/m² -
1787875744 25.56° C 94% 1018.2 hPa 0 mm - 0 W/m² -
1787875443 25.56° C 94% 1018.1 hPa 0 mm - 0 W/m² -
1787875142 25.56° C 94% 1018.1 hPa 0 mm - 0 W/m² -
1787874837 25.56° C 94% 1018.1 hPa 0 mm - 1 W/m² -
1787874536 25.56° C 94% 1018 hPa 0.51 mm - 1 W/m² -
1787874231 25.56° C 95% 1018 hPa 1.27 mm - 2 W/m² -
1787873925 25.56° C 95% 1017.8 hPa 1.27 mm - 4 W/m² -
1787873625 25.56° C 96% 1017.8 hPa 0.51 mm - 8 W/m² -
1787873320 25.56° C 96% 1017.7 hPa 0 mm - 8 W/m² -
1787873019 25.56° C 96% 1017.8 hPa 0 mm - 16 W/m² -
1787872714 25.56° C 96% 1017.7 hPa 0 mm - 19 W/m² -
1787872411 25.56° C 95% 1017.7 hPa 0 mm - 23 W/m² -
1787872105 25.56° C 95% 1017.6 hPa 0 mm - 26 W/m² -
1787871807 25.56° C 95% 1017.7 hPa 0 mm - 26 W/m² -
1787871505 25.56° C 95% 1017.9 hPa 0 mm - 24 W/m² -
1787871201 25.56° C 95% 1018 hPa 0 mm - 22 W/m² -
1787870901 25.56° C 95% 1018 hPa 0 mm - 16 W/m² -
1787870595 25.56° C 94% 1018.1 hPa 0 mm - 15 W/m² -
1787870291 26.11° C 94% 1017.9 hPa 0 mm - 17 W/m² -
1787869986 26.11° C 94% 1017.8 hPa 0 mm - 16 W/m² -
1787869685 26.11° C 94% 1017.5 hPa 0 mm - 16 W/m² -
1787869385 26.11° C 94% 1017.5 hPa 0 mm - 17 W/m² -

* Rain latest hour (hover to see other rain measurements)
** Current wind speed in m/s (hover to see current wind gust speed)